Weather History for Bentonville, AR

Change the Weather History Date:

Saturday, August 17, 2013

  Actual Average Record
Temperature  
Mean Temperature 68 °F -  
Max Temperature 78 °F 89 °F 105 °F (1954)
Min Temperature 57 °F 65 °F 47 °F (1992)
Cooling Degree Days 2    
Growing Degree Days 18 (Base 50)    
Moisture  
Dew Point 57 °F    
Average Humidity 69    
Maximum Humidity 88    
Minimum Humidity 47    
Precipitation  
Precipitation 0.00 in - - ()
Sea Level Pressure  
Sea Level Pressure 30.13 in    
Wind  
Wind Speed 3 mph (NE)    
Max Wind Speed 9 mph    
Max Gust Speed 16 mph    
Visibility 10 miles    
Events      
Averages and records for this station are not official NWS values.
T = Trace of Precipitation, MM = Missing Value Source: NWS Daily Summary

Daily Weather History Graph

Daily Weather History Graph

Search for Another Location

Airport:

Trip Planner

Search our weather history database for the weather conditions in past years. The results will help you decide how hot, cold, wet, or windy it might be!

Date:

Astronomy

Aug. 17, 2013 Rise Set
Actual Time 6:36 AM CDT 8:04 PM CDT
Civil Twilight 6:09 AM CDT 8:31 PM CDT
Nautical Twilight 5:36 AM CDT 9:04 PM CDT
Astronomical Twilight 5:02 AM CDT 9:38 PM CDT
Moon 5:17 PM CDT (8/17) 2:43 AM CDT (8/17)
Length of Visible Light 14h 22m
Length of Day
13h 27m
Waxing Gibbous, 84% of the Moon is Illuminated
Aug 17
Waxing Gibbous
Aug 20
Full
Aug 28
Last Quarter
Sep 5
New
Sep 12
First Quarter

Hourly Weather History & Observations

Time (CDT) Temp. Dew Point Humidity Pressure Visibility Wind Dir Wind Speed Gust Speed Precip Events Conditions
12:15 AM 62.6 °F 55.4 °F 77% 30.15 in 10.0 mi Calm Calm - N/A   Clear
12:36 AM 62.6 °F 55.4 °F 77% 30.15 in 10.0 mi Calm Calm - N/A   Clear
12:55 AM 62.6 °F 55.4 °F 77% 30.14 in 10.0 mi Calm Calm - N/A   Clear
1:15 AM 60.8 °F 55.4 °F 82% 30.15 in 10.0 mi Calm Calm - N/A   Clear
1:35 AM 60.8 °F 55.4 °F 82% 30.14 in 10.0 mi Calm Calm - N/A   Clear
1:55 AM 60.8 °F 55.4 °F 82% 30.14 in 10.0 mi Calm Calm - N/A   Clear
2:15 AM 60.8 °F 55.4 °F 82% 30.14 in 10.0 mi Calm Calm - N/A   Clear
2:35 AM 60.8 °F 55.4 °F 82% 30.14 in 10.0 mi NNE 3.5 mph - N/A   Clear
2:55 AM 60.8 °F 55.4 °F 82% 30.14 in 10.0 mi NNE 3.5 mph - N/A   Clear
3:15 AM 59.0 °F 55.4 °F 88% 30.14 in 10.0 mi NNE 3.5 mph - N/A   Clear
3:35 AM 59.0 °F 55.4 °F 88% 30.14 in 10.0 mi Calm Calm - N/A   Clear
3:55 AM 59.0 °F 55.4 °F 88% 30.14 in 10.0 mi Calm Calm - N/A   Clear
4:15 AM 59.0 °F 53.6 °F 82% 30.14 in 10.0 mi NNE 3.5 mph - N/A   Clear
4:35 AM 57.2 °F 53.6 °F 88% 30.13 in 10.0 mi NE 3.5 mph - N/A   Clear
4:55 AM 57.2 °F 53.6 °F 88% 30.13 in 10.0 mi NNE 3.5 mph - N/A   Clear
5:15 AM 57.2 °F 53.6 °F 88% 30.13 in 10.0 mi North 3.5 mph - N/A   Clear
5:35 AM 57.2 °F 53.6 °F 88% 30.13 in 10.0 mi NNE 3.5 mph - N/A   Clear
5:55 AM 57.2 °F 53.6 °F 88% 30.13 in 10.0 mi NNE 3.5 mph - N/A   Clear
6:15 AM 57.2 °F 53.6 °F 88% 30.13 in 10.0 mi NNE 3.5 mph - N/A   Clear
6:35 AM 57.2 °F 53.6 °F 88% 30.14 in 10.0 mi NNE 3.5 mph - N/A   Clear
6:55 AM 57.2 °F 53.6 °F 88% 30.14 in 8.0 mi Calm Calm - N/A   Clear
7:15 AM 57.2 °F 53.6 °F 88% 30.15 in 10.0 mi Calm Calm - N/A   Clear
7:35 AM 59.0 °F 55.4 °F 88% 30.15 in 10.0 mi NNE 3.5 mph - N/A   Clear
7:55 AM 60.8 °F 55.4 °F 82% 30.15 in 10.0 mi Calm Calm - N/A   Clear
8:15 AM 60.8 °F 55.4 °F 82% 30.16 in 10.0 mi Calm Calm - N/A   Clear
8:35 AM 62.6 °F 55.4 °F 77% 30.16 in 10.0 mi Calm Calm - N/A   Clear
8:55 AM 64.4 °F 57.2 °F 77% 30.17 in 10.0 mi ENE 3.5 mph - N/A   Clear
9:15 AM 66.2 °F 57.2 °F 73% 30.16 in 10.0 mi ENE 4.6 mph - N/A   Partly Cloudy
9:35 AM 66.2 °F 57.2 °F 73% 30.17 in 10.0 mi ENE 4.6 mph - N/A   Partly Cloudy
9:55 AM 68.0 °F 57.2 °F 68% 30.17 in 10.0 mi ENE 4.6 mph - N/A   Scattered Clouds
10:15 AM 69.8 °F 57.2 °F 64% 30.17 in 10.0 mi NE 5.8 mph - N/A   Partly Cloudy
10:35 AM 71.6 °F 57.2 °F 60% 30.17 in 10.0 mi East 5.8 mph - N/A   Clear
10:55 AM 71.6 °F 57.2 °F 60% 30.17 in 10.0 mi NE 8.1 mph - N/A   Clear
11:15 AM 71.6 °F 57.2 °F 60% 30.17 in 10.0 mi NE 8.1 mph - N/A   Mostly Cloudy
11:35 AM 71.6 °F 57.2 °F 60% 30.16 in 10.0 mi NNE 4.6 mph - N/A   Overcast
11:56 AM 73.4 °F 57.2 °F 57% 30.17 in 10.0 mi ENE 6.9 mph - N/A   Mostly Cloudy
12:35 PM 73.4 °F 57.2 °F 57% 30.16 in 10.0 mi East 8.1 mph - N/A   Overcast
12:55 PM 75.2 °F 57.2 °F 53% 30.15 in 10.0 mi ENE 9.2 mph - N/A   Overcast
1:15 PM 75.2 °F 57.2 °F 53% 30.15 in 10.0 mi NE 8.1 mph - N/A   Overcast
1:35 PM 75.2 °F 57.2 °F 53% 30.15 in 10.0 mi ENE 8.1 mph - N/A   Mostly Cloudy
1:55 PM 75.2 °F 57.2 °F 53% 30.14 in 10.0 mi East 3.5 mph - N/A   Mostly Cloudy
2:15 PM 75.2 °F 57.2 °F 53% 30.13 in 10.0 mi East 6.9 mph - N/A   Mostly Cloudy
2:35 PM 73.4 °F 57.2 °F 57% 30.13 in 10.0 mi ENE 6.9 mph 16.1 mph N/A   Overcast
2:55 PM 75.2 °F 57.2 °F 53% 30.12 in 10.0 mi East 9.2 mph - N/A   Overcast
3:15 PM 78.8 °F 57.2 °F 47% 30.11 in 10.0 mi East 8.1 mph - N/A   Mostly Cloudy
3:35 PM 75.2 °F 55.4 °F 50% 30.11 in 10.0 mi ENE 5.8 mph - N/A   Mostly Cloudy
3:55 PM 75.2 °F 57.2 °F 53% 30.10 in 10.0 mi ENE 5.8 mph - N/A   Scattered Clouds
4:15 PM 78.8 °F 57.2 °F 47% 30.10 in 10.0 mi East 4.6 mph - N/A   Scattered Clouds
4:35 PM 78.8 °F 57.2 °F 47% 30.09 in 10.0 mi East 5.8 mph - N/A   Scattered Clouds
4:55 PM 77.0 °F 57.2 °F 50% 30.09 in 10.0 mi NE 4.6 mph - N/A   Partly Cloudy
5:15 PM 78.8 °F 57.2 °F 47% 30.09 in 10.0 mi North 5.8 mph - N/A   Clear
5:36 PM 75.2 °F 57.2 °F 53% 30.09 in 10.0 mi ENE 8.1 mph - N/A   Partly Cloudy
5:55 PM 77.0 °F 57.2 °F 50% 30.09 in 10.0 mi ENE 5.8 mph - N/A   Clear
6:15 PM 77.0 °F 55.4 °F 47% 30.08 in 10.0 mi ENE 9.2 mph - N/A   Partly Cloudy
6:35 PM 77.0 °F 57.2 °F 50% 30.08 in 10.0 mi ENE 6.9 mph - N/A   Clear
6:55 PM 75.2 °F 57.2 °F 53% 30.08 in 10.0 mi NNE 4.6 mph - N/A   Clear
7:15 PM 75.2 °F 57.2 °F 53% 30.08 in 10.0 mi NE 5.8 mph - N/A   Clear
7:35 PM 73.4 °F 57.2 °F 57% 30.09 in 10.0 mi ENE 3.5 mph - N/A   Clear
7:55 PM 73.4 °F 57.2 °F 57% 30.09 in 10.0 mi NNE 4.6 mph - N/A   Clear
8:15 PM 71.6 °F 59.0 °F 64% 30.09 in 10.0 mi NE 3.5 mph - N/A   Clear
8:36 PM 71.6 °F 59.0 °F 64% 30.09 in 10.0 mi NE 4.6 mph - N/A   Clear
8:55 PM 69.8 °F 59.0 °F 68% 30.09 in 10.0 mi NE 5.8 mph - N/A   Clear
9:15 PM 69.8 °F 59.0 °F 68% 30.09 in 10.0 mi ENE 4.6 mph - N/A   Clear
9:35 PM 69.8 °F 59.0 °F 68% 30.10 in 10.0 mi ENE 4.6 mph - N/A   Clear
9:55 PM 69.8 °F 59.0 °F 68% 30.11 in 10.0 mi ENE 6.9 mph - N/A   Clear
10:15 PM 69.8 °F 59.0 °F 68% 30.11 in 10.0 mi ENE 3.5 mph - N/A   Clear
10:35 PM 68.0 °F 59.0 °F 73% 30.11 in 10.0 mi ENE 4.6 mph - N/A   Clear
10:55 PM 68.0 °F 59.0 °F 73% 30.11 in 10.0 mi Calm Calm - N/A   Clear
11:15 PM 68.0 °F 59.0 °F 73% 30.11 in 10.0 mi ENE 3.5 mph - N/A   Clear
11:35 PM 68.0 °F 59.0 °F 73% 30.11 in 10.0 mi ENE 3.5 mph - N/A   Clear
11:55 PM 68.0 °F 59.0 °F 73% 30.11 in 10.0 mi ENE 3.5 mph - N/A   Clear